Change the Weather History Date:

Tuesday, February 5, 2013

  Actual Average Record
Temperature  
Mean Temperature 14 °F -  
Max Temperature 23 °F - 61 °F (1962)
Min Temperature 5 °F - -14 °F (1978)
Degree Days  
Heating Degree Days 51    
Month to date heating degree days 243  
Since 1 July heating degree days 3968  
Cooling Degree Days 0    
Month to date cooling degree days 0  
Year to date cooling degree days 0  
Moisture  
Dew Point 4 °F    
Average Humidity 61    
Maximum Humidity 83    
Minimum Humidity 39    
Precipitation  
Precipitation 0.00 in - 0.51 in (1971)
Month to date precipitation 0.00  
Year to date precipitation 1.24  
Sea Level Pressure  
Sea Level Pressure 29.90 in    
Wind  
Wind Speed 3 mph (North)    
Max Wind Speed 10 mph    
Max Gust Speed -    
Visibility 10 miles    
Events      
T = Trace of Precipitation, MM = Missing Value Source: NWS Daily Summary

Daily Weather History Graph

Daily Weather History Graph

Search for Another Location

Airport or City:

Trip Planner

Search our weather history database for the weather conditions in past years. The results will help you decide how hot, cold, wet, or windy it might be!

Date:

Astronomy

Feb. 05, 2013 Rise Set
Actual Time 7:03 AM EST 5:09 PM EST
Civil Twilight 6:33 AM EST 5:39 PM EST
Nautical Twilight 5:59 AM EST 6:13 PM EST
Astronomical Twilight 5:25 AM EST 6:46 PM EST
Moon 2:45 AM EST (2/5) 12:20 PM EST (2/5)
Length of Visible Light 11h 06m
Length of Day
10h 05m
Waning Crescent, 27% of the Moon is Illuminated
Feb 5
Waning Crescent
Feb 10
New
Feb 17
First Quarter
Feb 25
Full
Mar 4
Last Quarter

Hourly Weather History & Observations

Time (EST) Temp. Windchill Dew Point Humidity Pressure Visibility Wind Dir Wind Speed Gust Speed Precip Events Conditions
12:15 AM 14.0 °F 3.9 °F 1.4 °F 57% 29.87 in 10.0 mi NW 6.9 mph - N/A   Mostly Cloudy
12:35 AM 14.0 °F 0.5 °F 1.4 °F 57% 29.88 in 10.0 mi NNW 11.5 mph - N/A   Mostly Cloudy
12:55 AM 14.0 °F 6.5 °F -0.4 °F 53% 29.87 in 10.0 mi WNW 4.6 mph - N/A   Overcast
1:15 AM 12.2 °F 4.3 °F 1.4 °F 62% 29.88 in 10.0 mi WSW 4.6 mph - N/A   Overcast
1:35 AM 12.2 °F 4.3 °F 3.2 °F 67% 29.88 in 10.0 mi West 4.6 mph - N/A   Mostly Cloudy
1:55 AM 12.2 °F 6.1 °F 1.4 °F 62% 29.89 in 10.0 mi WNW 3.5 mph - N/A   Mostly Cloudy
2:15 AM 12.2 °F 4.3 °F 3.2 °F 67% 29.89 in 10.0 mi NW 4.6 mph - N/A   Partly Cloudy
2:35 AM 12.2 °F 4.3 °F 3.2 °F 67% 29.89 in 10.0 mi NW 4.6 mph - N/A   Clear
2:55 AM 12.2 °F 2.9 °F 5.0 °F 73% 29.88 in 10.0 mi WNW 5.8 mph - N/A   Clear
3:15 AM 12.2 °F 6.1 °F 5.0 °F 73% 29.89 in 10.0 mi WNW 3.5 mph - N/A   Clear
3:55 AM 10.4 °F - 5.0 °F 79% 29.90 in 10.0 mi Calm Calm - N/A   Clear
4:15 AM 8.6 °F 0.1 °F 3.2 °F 79% 29.89 in 10.0 mi ENE 4.6 mph - N/A   Clear
4:35 AM 8.6 °F 2.0 °F 3.2 °F 79% 29.90 in 10.0 mi SSE 3.5 mph - N/A   Clear
4:55 AM 8.6 °F - 3.2 °F 79% 29.90 in 10.0 mi Calm Calm - N/A   Clear
5:15 AM 8.6 °F 0.1 °F 3.2 °F 79% 29.90 in 10.0 mi North 4.6 mph - N/A   Clear
5:35 AM 8.6 °F -1.3 °F 1.4 °F 73% 29.90 in 10.0 mi NNW 5.8 mph - N/A   Clear
6:15 AM 8.6 °F 0.1 °F 1.4 °F 73% 29.91 in 10.0 mi North 4.6 mph - N/A   Clear
6:35 AM 6.8 °F -2.0 °F 1.4 °F 79% 29.92 in 10.0 mi North 4.6 mph - N/A   Clear
6:55 AM 5.0 °F - -0.4 °F 78% 29.93 in 10.0 mi North - - N/A   Clear
7:15 AM 5.0 °F - -0.4 °F 78% 29.94 in 10.0 mi Calm Calm - N/A   Clear
7:35 AM 6.8 °F -0.1 °F -0.4 °F 72% 29.95 in 10.0 mi NNW 3.5 mph - N/A   Clear
7:55 AM 6.8 °F - -0.4 °F 72% 29.96 in 10.0 mi Calm Calm - N/A   Clear
8:35 AM 6.8 °F - 1.4 °F 79% 29.98 in 10.0 mi Calm Calm - N/A   Clear
8:55 AM 8.6 °F - -2.2 °F 62% 29.98 in 10.0 mi Calm Calm - N/A   Clear
9:15 AM 10.4 °F - 1.4 °F 67% 29.98 in 10.0 mi Calm Calm - N/A   Clear
9:35 AM 10.4 °F 4.0 °F -0.4 °F 62% 29.98 in 10.0 mi North 3.5 mph - N/A   Clear
9:55 AM 12.2 °F 6.1 °F 1.4 °F 62% 29.98 in 10.0 mi North 3.5 mph - N/A   Clear
10:15 AM 12.2 °F - 1.4 °F 62% 29.98 in 10.0 mi Calm Calm - N/A   Clear
10:35 AM 15.8 °F 10.2 °F 3.2 °F 58% 29.98 in 10.0 mi East 3.5 mph - N/A   Clear
11:15 AM 17.6 °F - 5.0 °F 58% 29.97 in 10.0 mi Calm Calm - N/A   Clear
11:35 AM 17.6 °F 10.7 °F 6.8 °F 63% 29.95 in 10.0 mi NNE 4.6 mph - N/A   Clear
11:55 AM 17.6 °F 12.3 °F 3.2 °F 53% 29.95 in 10.0 mi ENE 3.5 mph - N/A   Clear
12:15 PM 19.4 °F 12.8 °F 3.2 °F 49% 29.94 in 10.0 mi North 4.6 mph - N/A   Clear
12:35 PM 19.4 °F 10.4 °F 3.2 °F 49% 29.92 in 10.0 mi NE 6.9 mph - N/A   Clear
12:55 PM 21.2 °F 13.6 °F 1.4 °F 42% 29.92 in 10.0 mi NNE 5.8 mph - N/A   Clear
1:15 PM 21.2 °F 14.9 °F 1.4 °F 42% 29.91 in 10.0 mi NNW 4.6 mph - N/A   Clear
1:35 PM 21.2 °F 16.4 °F 3.2 °F 46% 29.91 in 10.0 mi NE 3.5 mph - N/A   Clear
1:55 PM 21.2 °F 12.6 °F 1.4 °F 42% 29.90 in 10.0 mi North 6.9 mph - N/A   Clear
2:15 PM 21.2 °F - 3.2 °F 46% 29.89 in 10.0 mi Calm Calm - N/A   Clear
2:35 PM 23.0 °F 15.8 °F 1.4 °F 39% 29.89 in 10.0 mi North 5.8 mph - N/A   Clear
2:55 PM 23.0 °F 18.4 °F 1.4 °F 39% 29.89 in 10.0 mi NNW 3.5 mph - N/A   Clear
3:15 PM 23.0 °F 18.4 °F 1.4 °F 39% 29.89 in 10.0 mi WNW 3.5 mph - N/A   Clear
3:35 PM 21.2 °F 14.9 °F 3.2 °F 46% 29.89 in 10.0 mi NNW 4.6 mph - N/A   Clear
3:55 PM 21.2 °F 14.9 °F 3.2 °F 46% 29.88 in 10.0 mi NE 4.6 mph - N/A   Clear
4:15 PM 21.2 °F 16.4 °F 1.4 °F 42% 29.89 in 10.0 mi North 3.5 mph - N/A   Clear
4:35 PM 21.2 °F 14.9 °F 3.2 °F 46% 29.89 in 10.0 mi NW 4.6 mph - N/A   Clear
4:55 PM 21.2 °F 16.4 °F 3.2 °F 46% 29.89 in 10.0 mi NW 3.5 mph - N/A   Clear
5:15 PM 21.2 °F - 3.2 °F 46% 29.88 in 10.0 mi Calm Calm - N/A   Clear
5:35 PM 21.2 °F - 3.2 °F 46% 29.87 in 10.0 mi Calm Calm - N/A   Clear
5:55 PM 19.4 °F - 5.0 °F 54% 29.87 in 10.0 mi Calm Calm - N/A   Clear
6:15 PM 19.4 °F 14.3 °F 5.0 °F 54% 29.87 in 10.0 mi SE 3.5 mph - N/A   Scattered Clouds
6:35 PM 19.4 °F - 5.0 °F 54% 29.87 in 10.0 mi Calm Calm - N/A   Mostly Cloudy
6:55 PM 19.4 °F - 6.8 °F 58% 29.87 in 10.0 mi Calm Calm - N/A   Scattered Clouds
7:15 PM 19.4 °F - 6.8 °F 58% 29.87 in 10.0 mi Calm Calm - N/A   Clear
7:35 PM 19.4 °F 14.3 °F 6.8 °F 58% 29.88 in 10.0 mi ENE 3.5 mph - N/A   Mostly Cloudy
7:55 PM 17.6 °F 7.3 °F 8.6 °F 68% 29.88 in 10.0 mi SE 8.1 mph - N/A   Scattered Clouds
8:15 PM 17.6 °F 10.7 °F 8.6 °F 68% 29.88 in 10.0 mi SSE 4.6 mph - N/A   Mostly Cloudy
8:35 PM 17.6 °F 10.7 °F 6.8 °F 63% 29.87 in 10.0 mi SSE 4.6 mph - N/A   Mostly Cloudy
8:55 PM 19.4 °F 7.9 °F 6.8 °F 58% 29.87 in 10.0 mi SE 10.4 mph - N/A   Mostly Cloudy
9:15 PM 19.4 °F - 6.8 °F 58% 29.86 in 10.0 mi Calm Calm - N/A   Mostly Cloudy
9:35 PM 17.6 °F 12.3 °F 8.6 °F 68% 29.86 in 10.0 mi SSE 3.5 mph - N/A   Mostly Cloudy
9:55 PM 17.6 °F - 6.8 °F 63% 29.87 in 10.0 mi Calm Calm - N/A   Overcast
10:15 PM 17.6 °F - 8.6 °F 68% 29.87 in 10.0 mi Calm Calm - N/A   Overcast
10:35 PM 17.6 °F - 10.4 °F 73% 29.86 in 10.0 mi Calm Calm - N/A   Overcast
10:55 PM 19.4 °F - 8.6 °F 63% 29.85 in 10.0 mi Calm Calm - N/A   Overcast
11:15 PM 19.4 °F - 12.2 °F 74% 29.86 in 10.0 mi Calm Calm - N/A   Overcast
11:35 PM 19.4 °F - 10.4 °F 68% 29.86 in 10.0 mi Calm Calm - N/A   Overcast
11:55 PM 19.4 °F - 8.6 °F 63% 29.86 in 10.0 mi Calm Calm - N/A   Overcast